Regional Weather Roundup
Issued by NWS

Home | Current Version | Previous Version | Text Only | Print | Product List | Glossary Off
Versions: 1 2 3 4 5 6 7 8 9 10 11 12 13 14 15 16 17 18 19 20 21 22 23 24 25 26 27 28 29 30 31 32 33 34 35 36 37 38 39 40 41 42 43 44 45 46 47 48 49 50

000
ASUS45 KBOU 291107
RWRCO

WEATHER ROUNDUP FOR COLORADO
NATIONAL WEATHER SERVICE DENVER/BOULDER CO
500 AM MDT FRI MAY 29 2015

NOTE: "FAIR" INDICATES FEW OR NO CLOUDS BELOW 12000 FEET WITH NO
SIGNIFICANT WEATHER AND/OR OBSTRUCTIONS TO VISIBILITY.

COZ001>005-013-030-031-291200-
...NORTHWEST COLORADO...

CITY           SKY/WX    TMP DP  RH WIND       PRES   REMARKS
CRAIG          CLOUDY    40  38  93 SW7       30.24S
HAYDEN         MOCLDY    39  34  81 SE6       30.25R
MEEKER         CLEAR     37  35  92 NE5       30.25S
MOUNT WERNER   NOT AVBL
STEAMBOAT SPGS CLOUDY    39  38  94 CALM      30.26R
WALDEN         CLOUDY    37  34  87 CALM      30.27S
$$

COZ006>008-011-291200-
...WEST CENTRAL VALLEYS...

CITY           SKY/WX    TMP DP  RH WIND       PRES   REMARKS
GRAND JUNCTION CLEAR     43  43 100 CALM      30.17S
MONTROSE       CLEAR     43  39  86 SE7       30.22R
EAGLE          PTCLDY    48  46  93 E5        30.29R
RIFLE          CLEAR     42  38  85 CALM      30.23S
DELTA          CLEAR     45  41  85 CALM      30.20R
NUCLA          CLEAR     43  37  81 E8        30.23R
$$

COZ017>023-064>068-291200-
...SOUTHWEST COLORADO...

CITY           SKY/WX    TMP DP  RH WIND       PRES   REMARKS
DURANGO        CLEAR     39  35  86 N3        30.19R
CORTEZ         CLEAR     40  37  89 E6        30.17R
PAGOSA SPRINGS CLEAR     40  33  74 CALM      30.24R
TELLURIDE      CLEAR     37  35  92 SE7       30.32R
WOLF CREEK PAS NOT AVBL
$$

COZ009-010-012-014-032>034-037-058>063-291200-
...CENTRAL COLORADO...

CITY           SKY/WX    TMP DP  RH WIND       PRES   REMARKS
ASPEN          PTCLDY    33  30  88 CALM      30.27S
BUENA VISTA    PTCLDY    37  31  80 N5        30.26F
COPPER MTN     PTCLDY    32  25  74 SW7       30.38S WCI  26
BERTHOUD PASS  FAIR      21  14  73 NW20G30   30.37F WCI   6
COTTONWOOD PAS PTCLDY    39  27  60 W10       30.31F
GUNNISON       CLOUDY    36  32  87 N6        30.30F
KREMMLING      PTCLDY    37  36  93 CALM      30.29R
LEADVILLE      PTCLDY    30  27  88 CALM      30.31F
MONARCH PASS   CLEAR     28  27  93 MISG      30.48F
SALIDA         PTCLDY    40  32  74 W7        30.33S
SUNLIGHT       CLEAR     32  32 100 CALM        N/A
WILKERSON PASS CLEAR     32  23  69 MISG      30.38F
$$

COZ069>075-291200-
...SAN LUIS VALLEY/SANGRE DE CRISTO MOUNTAINS...

CITY           SKY/WX    TMP DP  RH WIND       PRES   REMARKS
ALAMOSA        CLEAR     38  32  79 CALM      30.24S
LA VETA PASS   CLEAR    N/A N/A N/A MISG      30.33S
SAGUACHE       CLEAR     37  34  87 NW13      30.27R
$$

COZ035-036-038>040-291200-
...NORTHERN COLORADO FRONT RANGE...

CITY           SKY/WX    TMP DP  RH WIND       PRES   REMARKS
DENVER INTL AP PTCLDY    48  43  82 CALM      30.15S
DMNS CITY PARK   N/A     47  45  91 E2        30.15S
AURORA         PTCLDY    46  42  88 SW5       30.17R
FRONT RANGE AP PTCLDY    50  46  87 MISG      30.16S
ERIE MUNI ARPT MOCLDY    47  46  93 CALM      30.15S
BOULDER MUN AP MOCLDY    52  50  93 CALM      30.15S
CENTENNIAL     PTCLDY    43  41  93 S3        30.17R
BROOMFIELD     MOCLDY    48  45  87 W3        30.17F
FORT COLLINS   PTCLDY    48  45  87 S5        30.16S
LONGMONT       PTCLDY    51  48  90 CALM      30.17S
$$

COZ041-046-047-076>085-087-088-291200-
...PIKES PEAK/PALMER DIVIDE AND SOUTHERN FOOTHILLS...

CITY           SKY/WX    TMP DP  RH WIND       PRES   REMARKS
COLO. SPRINGS  MOCLDY    49  43  80 N7        30.18S
A. F. ACADEMY  CLEAR     41  40  99 NE6       30.18S
ELLICOTT       CLEAR    N/A N/A N/A CALM      30.16S
FALCON         CLEAR     43  40  88 NW53G104  30.20F
FORT CARSON    CLEAR     46  42  84 N8        30.16R
LIMON          CLEAR     47  44  90 CALM      30.14R
MONUMENT HILL  PTCLDY    39  36  87 CALM      30.21R
TRINIDAD       PTCLDY    50  46  86 W5        30.16S
$$

COZ042>045-048>051-090-091-291200-
...NORTHEAST COLORADO...

CITY           SKY/WX    TMP DP  RH WIND       PRES   REMARKS
GREELEY ARPT   CLOUDY    52  48  87 NW6       30.14R
AKRON          MOCLDY    48  47  96 W10       30.09S
BURLINGTON     MOCLDY    54  50  86 NW14      30.07R
WRAY           MOCLDY   N/A N/A N/A W5        30.06R
STERLING       PTCLDY    50  46  87 CALM      30.08S
HOLYOKE        MOCLDY    55  50  82 NW10G16   30.05R
FORT MORGAN    CLOUDY    52  47  84 N10       30.11S
$$

COZ086-089-092>099-291200-
...SOUTHEAST COLORADO...

CITY           SKY/WX    TMP DP  RH WIND       PRES   REMARKS
PUEBLO         PTCLDY    51  48  89 NW7       30.12S
LA JUNTA       MOCLDY    54  49  83 W13       30.09R
LAMAR          MOCLDY    50  49  96 SW7       30.04R
SPRINGFIELD      N/A     48  47  96 W3        30.07S
$$


USA.gov is the U.S. government's official web portal to all federal, state and local government web resources and services.